星链-11551 (STARLINK-11551)

导读 | 豆包AI

STARLINK-11551是美国SpaceX公司星链(Starlink)星座中的卫星,于2025年1月27日发射入轨,归属于美国。星链计划旨在构建全球卫星互联网星座,为全球偏远地区、海洋空域等提供高速低延迟的宽带互联网接入服务,该卫星承担着扩充星座网络覆盖、提升服务容量的作用。

基本信息
目录编号:
62840
目录名称:
STARLINK-11551
国际标识:
2025-019M
轨道中心:
EARTH
卫星名称:
星链-11551
卫星全名:
星链-11551 (STARLINK-11551)
卫星状态:
在轨 (已飞行412 天)
发射日期:
2025-01-27 UTC
国别 :
美国 (US)
星等 :
--
轨道信息
数据来源 国际轨道数据
星历时间: 2026-03-14T22:22:56+0800
13小时前
查看轨道信息
半长轴: 6733.679km
偏心率: 0.0002984
轨道倾角: 42.999°
近地点辐角 286.180°
升交点赤经 276.319°
平近点角 73.874°
近地点: 353.532km
远地点: 357.552km
周期: 91.651分钟
每日圈数: 15.711736
详细信息
固有亮度:
5
最大亮度:
2.5
卫星平台:
Starlink V1.0
覆盖范围:
全球
运营商:
太空探索技术公司
运营商所在国:
美国
制造商(研发单位):
太空探索技术公司
制造商所在国:
美国
使用方式:
暂无
卫星简介
Starlink 计划是 SpaceX 推出的全球卫星互联网项目,通过发射低轨道卫星,为全球尤其是偏远地区提供高速、低延迟的互联网服务。自 2019 年起,Starlink 已部署数千颗卫星,旨在缩小全球数字鸿沟,推动互联网普及。该项目还为军事、航空等行业提供通信支持,带来广泛经济效益。
2D轨道图
3D轨道图
轨道高度分析图
轨道倾角分析图
轨道综合分析图
查看轨道综合分析图